TimeCDT,TemperatureF,Dew PointF,Humidity,Sea Level PressureIn,VisibilityMPH,Wind Direction,Wind SpeedMPH,Gust SpeedMPH,PrecipitationIn,Events,Conditions,WindDirDegrees,DateUTC
12:15 AM,51.8,41.0,67,30.11,10.0,NE,9.2,-,0.00,,Clear,50,2013-04-02 05:15:00
12:35 AM,51.8,39.2,62,30.11,10.0,NE,8.1,-,0.00,,Clear,50,2013-04-02 05:35:00
12:55 AM,51.8,39.2,62,30.13,10.0,NE,8.1,-,0.00,,Clear,50,2013-04-02 05:55:00
1:15 AM,50.0,39.2,66,30.14,9.0,NNE,8.1,-,0.00,,Clear,30,2013-04-02 06:15:00
1:35 AM,50.0,39.2,66,30.14,10.0,NNE,6.9,-,0.00,,Clear,30,2013-04-02 06:35:00
1:55 AM,48.2,39.2,71,30.15,10.0,NNE,8.1,-,0.00,,Clear,20,2013-04-02 06:55:00
2:15 AM,48.2,39.2,71,30.15,10.0,NE,9.2,-,0.00,,Clear,40,2013-04-02 07:15:00
2:35 AM,48.2,39.2,71,30.16,10.0,NNE,11.5,-,0.00,,Clear,30,2013-04-02 07:35:00
2:55 AM,48.2,37.4,66,30.17,10.0,NE,10.4,-,N/A,,Partly Cloudy,40,2013-04-02 07:55:00
3:15 AM,48.2,37.4,66,30.17,10.0,NNE,9.2,-,0.00,,Mostly Cloudy,30,2013-04-02 08:15:00
3:35 AM,48.2,35.6,62,30.17,10.0,NNE,11.5,18.4,0.00,,Overcast,30,2013-04-02 08:35:00
3:55 AM,46.4,35.6,66,30.17,10.0,NE,13.8,-,0.00,,Mostly Cloudy,40,2013-04-02 08:55:00
4:15 AM,46.4,33.8,62,30.18,10.0,NNE,11.5,16.1,0.00,,Scattered Clouds,30,2013-04-02 09:15:00
4:35 AM,46.4,33.8,62,30.18,10.0,NE,12.7,-,0.00,,Clear,40,2013-04-02 09:35:00
4:55 AM,44.6,33.8,66,30.18,8.0,NE,11.5,16.1,N/A,,Mostly Cloudy,50,2013-04-02 09:55:00
5:15 AM,44.6,32.0,61,30.18,10.0,NNE,13.8,-,0.00,,Mostly Cloudy,30,2013-04-02 10:15:00
5:35 AM,44.6,32.0,61,30.18,9.0,NE,12.7,-,0.00,,Mostly Cloudy,40,2013-04-02 10:35:00
5:55 AM,44.6,32.0,61,30.18,10.0,NE,12.7,-,0.00,,Mostly Cloudy,50,2013-04-02 10:55:00
6:15 AM,44.6,32.0,61,30.19,10.0,NE,12.7,-,0.00,,Overcast,50,2013-04-02 11:15:00
6:35 AM,44.6,32.0,61,30.20,10.0,NE,10.4,-,0.00,,Overcast,40,2013-04-02 11:35:00
6:50 AM,44.6,32.0,61,30.20,10.0,NE,9.2,-,N/A,,Mostly Cloudy,50,2013-04-02 11:50:00
6:55 AM,44.6,32.0,61,30.21,10.0,NE,11.5,-,0.00,,Mostly Cloudy,40,2013-04-02 11:55:00
8:50 AM,44.6,28.4,53,30.26,10.0,NE,11.5,-,N/A,,Overcast,50,2013-04-02 13:50:00
9:50 AM,44.6,28.4,53,30.24,10.0,NE,13.8,-,N/A,,Overcast,50,2013-04-02 14:50:00
10:50 AM,46.4,28.4,50,30.26,10.0,NE,15.0,-,N/A,,Overcast,50,2013-04-02 15:50:00
11:50 AM,48.2,30.2,50,30.26,10.0,NE,11.5,-,N/A,,Overcast,40,2013-04-02 16:50:00
12:50 PM,48.2,30.2,50,30.26,10.0,ENE,6.9,-,N/A,,Overcast,70,2013-04-02 17:50:00
1:50 PM,48.2,30.2,50,30.24,10.0,NNE,11.5,-,N/A,,Overcast,30,2013-04-02 18:50:00
2:50 PM,48.2,30.2,50,30.23,10.0,NE,10.4,-,N/A,,Overcast,50,2013-04-02 19:50:00
3:50 PM,46.4,30.2,53,30.23,10.0,NE,10.4,-,N/A,,Overcast,40,2013-04-02 20:50:00
4:50 PM,44.6,30.2,57,30.22,10.0,NNE,13.8,-,N/A,,Overcast,30,2013-04-02 21:50:00
5:50 PM,42.8,26.6,53,30.23,6.0,NNE,6.9,-,N/A,Rain,Light Rain,30,2013-04-02 22:50:00
7:50 PM,37.4,37.4,100,-9999,7.0,NNE,8.1,-,N/A,Rain,Light Rain,30,2013-04-03 00:50:00
9:15 PM,37.4,37.4,100,30.23,9.0,NNE,8.1,-,0.00,,Overcast,30,2013-04-03 02:15:00
9:35 PM,37.4,37.4,100,30.24,10.0,NNE,6.9,-,0.01,,Overcast,30,2013-04-03 02:35:00
9:55 PM,37.4,37.4,100,30.24,8.0,NE,8.1,-,0.01,,Overcast,40,2013-04-03 02:55:00
10:15 PM,37.4,37.4,100,30.24,7.0,NNE,10.4,-,N/A,,Overcast,30,2013-04-03 03:15:00
10:35 PM,37.4,37.4,100,30.24,10.0,NE,11.5,-,0.00,,Overcast,40,2013-04-03 03:35:00
10:55 PM,37.4,37.4,100,30.24,10.0,NE,11.5,-,0.00,,Mostly Cloudy,40,2013-04-03 03:55:00
11:15 PM,37.4,37.4,100,30.23,10.0,NE,8.1,-,0.00,,Scattered Clouds,50,2013-04-03 04:15:00
11:35 PM,37.4,37.4,100,30.22,10.0,NE,10.4,-,0.00,,Mostly Cloudy,50,2013-04-03 04:35:00
11:55 PM,39.2,37.4,93,30.22,10.0,NE,9.2,-,0.00,,Partly Cloudy,40,2013-04-03 04:55:00